Powered by GoogleTranslate

Occupational Safety and Health Administration OSHA

Accident Search Results

Description, Abstract, KeywordSICNAICSDate RangeOfficeInsp Nr
Keyword: "Roofer"AllAllAllAllAll

By Date

Results 201 - 220 of 2049
Result Page: ... 6 7 8 9 10 11 12 13 14 15 ...
  # Summary Nr Event Date Report ID Fat SIC Event Description
201 122521.01 06/15/2019 0454712 X Employee Is Killed In Fall From Roof
202 117256.01 06/14/2019 0420600   Employee Falls From Roof, Receives Ankle Fractures
203 117492.01 06/12/2019 0352430   Employee Sustains Multiple Injuries In Fall From Roof
204 117093.01 06/11/2019 0419700   Employee Falls From Roof, Fractures Wrist And Jaw
205 117089.01 06/10/2019 1054115   Employee Fractures Back In Fall Through Temporary Skylight C
206 118162.01 06/07/2019 0950631 X Employee Is Killed In Fall Through Roof
207 117124.01 06/07/2019 0950621   Employee Falls From Roof And Fractures Leg, Shatters Wrist
208 119002.01 06/05/2019 0627700 X Employee Is Killed In Fall From Roof
209 117118.01 06/05/2019 0420600   Employee Sustains Fractures In Fall From Roof
210 116889.01 06/05/2019 0418800   Employee Lacerates Thumb Tip While Cutting Roofing Lumber
211 116956.01 06/05/2019 0453730 X Employee Is Killed In Fall From Roof To Concrete Wall
212 118128.01 06/04/2019 0111500   Employee Fractures Leg In Fall From Roof
213 116808.01 06/04/2019 0419400   Employee Falls Through Roof Opening, Fractures Rib
214 116932.01 06/03/2019 0418800   Employee Is Sickened By Heat And Humidity
215 118117.01 05/29/2019 0352450   Employee Injures Back In Fall From Roof
216 116682.01 05/29/2019 0950643 X Employee Falls From Roof, Dies From Unrelated Condition
217 121972.01 05/28/2019 0950647   Employee Sustains Multiple Injuries In Fall Through Roof Ope
218 116620.01 05/24/2019 0950612   Employee Sustains Multiple Injuries In Fall From Roof
219 116532.01 05/24/2019 0950633 X Employee Welding Roof Panel Is Killed In Fall
220 117231.01 05/20/2019 0950633   Employee Falls From Roof And Receives Back Fractures

Thank You for Visiting Our Website

You are exiting the Department of Labor's Web server.

The Department of Labor does not endorse, takes no responsibility for, and exercises no control over the linked organization or its views, or contents, nor does it vouch for the accuracy or accessibility of the information contained on the destination server. The Department of Labor also cannot authorize the use of copyrighted materials contained in linked Web sites. Users must request such authorization from the sponsor of the linked Web site. Thank you for visiting our site. Please click the button below to continue.

Close